Precipitable_Water
0.61 0.62 0.67 0.67 0.63 0.63 0.62 0.51 0.34 0.63 0.65 0.33 0.39 0.31 0.27 0.26 0.29 0.37 0.34 0.33 0.27 0.24 0.24 0.24 0.25 0.27 0.33 0.40 0.45 0.38 0.46 0.38 0.30 0.35 0.46 0.50 0.47 0.43 0.41 0.29 0.26 0.31 0.30 0.28
0.58 0.61 0.63 0.61 0.62 0.63 0.54 0.39 0.41 0.64 0.64 0.27 0.26 0.26 0.24 0.26 0.28 0.31 0.30 0.28 0.29 0.29 0.26 0.23 0.29 0.31 0.40 0.43 0.44 0.41 0.44 0.33 0.25 0.27 0.36 0.44 0.41 0.45 0.43 0.40 0.38 0.29 0.26 0.29
0.55 0.57 0.59 0.57 0.59 0.59 0.50 0.40 0.34 0.47 0.49 0.39 0.27 0.20 0.20 0.22 0.32 0.30 0.31 0.29 0.31 0.27 0.25 0.30 0.29 0.30 0.41 0.45 0.45 0.50 0.49 0.38 0.31 0.25 0.31 0.39 0.35 0.39 0.41 0.38 0.30 0.32 0.32 0.35
0.53 0.55 0.55 0.56 0.59 0.62 0.55 0.43 0.38 0.42 0.26 0.26 0.24 0.22 0.22 0.21 0.22 0.30 0.31 0.28 0.28 0.26 0.22 0.27 0.29 0.34 0.39 0.41 0.45 0.46 0.43 0.32 0.37 0.39 0.41 0.40 0.39 0.37 0.37 0.34 0.36 0.32 0.36 0.37
0.54 0.55 0.56 0.58 0.62 0.68 0.53 0.40 0.37 0.39 0.31 0.31 0.23 0.21 0.22 0.22 0.25 0.26 0.25 0.24 0.27 0.29 0.25 0.26 0.27 0.34 0.35 0.34 0.38 0.37 0.40 0.29 0.33 0.31 0.37 0.35 0.32 0.35 0.36 0.34 0.35 0.37 0.39 0.39
0.53 0.54 0.56 0.58 0.64 0.66 0.49 0.49 0.47 0.35 0.27 0.26 0.22 0.20 0.21 0.24 0.28 0.30 0.33 0.30 0.27 0.26 0.30 0.35 0.37 0.40 0.40 0.39 0.35 0.33 0.33 0.31 0.27 0.21 0.28 0.26 0.22 0.30 0.31 0.35 0.37 0.36 0.32 0.42
0.56 0.57 0.57 0.61 0.65 0.61 0.46 0.40 0.35 0.26 0.20 0.22 0.20 0.21 0.24 0.25 0.26 0.26 0.33 0.34 0.27 0.32 0.41 0.42 0.40 0.39 0.38 0.36 0.35 0.36 0.29 0.29 0.26 0.20 0.23 0.13 0.28 0.40 0.38 0.33 0.37 0.38 0.39 0.44
0.55 0.58 0.58 0.63 0.62 0.55 0.40 0.39 0.31 0.25 0.18 0.21 0.21 0.22 0.24 0.28 0.30 0.29 0.29 0.31 0.35 0.44 0.40 0.30 0.25 0.25 0.26 0.28 0.31 0.30 0.33 0.28 0.21 0.17 0.17 0.22 0.27 0.33 0.32 0.28 0.29 0.38 0.34 0.38
0.60 0.62 0.61 0.60 0.60 0.56 0.41 0.37 0.39 0.28 0.20 0.19 0.24 0.21 0.25 0.22 0.23 0.24 0.27 0.35 0.41 0.40 0.33 0.25 0.16 0.13 0.17 0.16 0.21 0.30 0.30 0.30 0.22 0.19 0.14 0.11 0.23 0.33 0.41 0.37 0.20 0.37 0.35 0.34
0.61 0.63 0.61 0.60 0.60 0.58 0.43 0.36 0.39 0.27 0.18 0.25 0.25 0.21 0.23 0.29 0.28 0.23 0.25 0.27 0.28 0.35 0.24 0.18 0.15 0.13 0.21 0.14 0.14 0.15 0.17 0.20 0.16 0.16 0.14 0.16 0.28 0.34 0.39 0.20 0.20 0.36 0.34 0.34
0.60 0.60 0.63 0.62 0.60 0.52 0.46 0.36 0.38 0.27 0.21 0.25 0.28 0.30 0.28 0.29 0.29 0.21 0.25 0.23 0.24 0.23 0.17 0.17 0.16 0.16 0.17 0.15 0.18 0.15 0.14 0.13 0.14 0.16 0.12 0.09 0.30 0.31 0.23 0.30 0.38 0.35 0.33 0.34
0.56 0.59 0.63 0.64 0.62 0.53 0.48 0.30 0.36 0.35 0.24 0.24 0.33 0.34 0.38 0.36 0.35 0.30 0.28 0.24 0.25 0.27 0.20 0.19 0.19 0.15 0.17 0.16 0.10 0.20 0.12 0.17 0.14 0.16 0.14 0.26 0.31 0.30 0.36 0.37 0.35 0.34 0.33 0.35
0.52 0.55 0.61 0.64 0.62 0.57 0.52 0.33 0.33 0.30 0.23 0.23 0.25 0.24 0.35 0.39 0.38 0.42 0.25 0.27 0.31 0.28 0.31 0.23 0.21 0.14 0.19 0.11 0.12 0.15 0.18 0.22 0.17 0.17 0.19 0.24 0.30 0.35 0.35 0.36 0.34 0.34 0.35 0.36
0.58 0.58 0.59 0.62 0.60 0.61 0.56 0.35 0.35 0.33 0.26 0.16 0.18 0.32 0.30 0.38 0.38 0.37 0.38 0.33 0.35 0.33 0.31 0.23 0.20 0.15 0.22 0.15 0.17 0.16 0.17 0.20 0.16 0.16 0.21 0.25 0.28 0.34 0.36 0.37 0.38 0.35 0.36 0.35
0.60 0.61 0.59 0.61 0.60 0.60 0.52 0.36 0.36 0.37 0.27 0.17 0.17 0.25 0.31 0.35 0.35 0.34 0.35 0.34 0.32 0.28 0.24 0.21 0.18 0.22 0.22 0.21 0.19 0.13 0.16 0.14 0.12 0.10 0.17 0.19 0.21 0.31 0.37 0.36 0.34 0.35 0.35 0.35
0.65 0.61 0.59 0.62 0.62 0.55 0.39 0.26 0.33 0.37 0.33 0.20 0.13 0.26 0.26 0.30 0.33 0.31 0.30 0.31 0.30 0.29 0.24 0.22 0.24 0.27 0.21 0.14 0.12 0.13 0.16 0.18 0.20 0.15 0.22 0.25 0.27 0.32 0.37 0.36 0.36 0.37 0.36 0.37
0.63 0.59 0.63 0.69 0.56 0.43 0.33 0.25 0.31 0.38 0.38 0.21 0.15 0.15 0.25 0.29 0.29 0.29 0.28 0.30 0.28 0.26 0.24 0.21 0.21 0.22 0.22 0.17 0.12 0.13 0.15 0.18 0.21 0.24 0.26 0.25 0.28 0.26 0.36 0.38 0.37 0.39 0.40 0.41
0.63 0.59 0.55 0.60 0.58 0.48 0.36 0.39 0.40 0.41 0.30 0.27 0.15 0.14 0.17 0.27 0.20 0.20 0.29 0.24 0.26 0.25 0.22 0.24 0.21 0.23 0.22 0.14 0.15 0.17 0.19 0.20 0.23 0.24 0.27 0.26 0.30 0.35 0.36 0.38 0.38 0.35 0.36 0.37
0.65 0.67 0.67 0.62 0.56 0.47 0.40 0.46 0.45 0.44 0.33 0.21 0.19 0.12 0.10 0.25 0.21 0.23 0.23 0.24 0.17 0.26 0.21 0.20 0.22 0.18 0.15 0.14 0.15 0.16 0.19 0.19 0.20 0.26 0.28 0.29 0.29 0.31 0.34 0.35 0.35 0.33 0.35 0.37
0.72 0.64 0.56 0.50 0.57 0.61 0.55 0.46 0.35 0.33 0.33 0.31 0.24 0.25 0.18 0.22 0.21 0.19 0.19 0.21 0.17 0.15 0.21 0.25 0.21 0.18 0.18 0.17 0.18 0.19 0.20 0.25 0.27 0.23 0.24 0.27 0.28 0.31 0.32 0.32 0.35 0.36 0.37 0.38
0.62 0.53 0.52 0.64 0.66 0.57 0.48 0.39 0.35 0.35 0.31 0.35 0.36 0.35 0.26 0.31 0.20 0.18 0.23 0.18 0.19 0.13 0.17 0.20 0.19 0.19 0.20 0.23 0.20 0.21 0.22 0.27 0.28 0.27 0.27 0.28 0.27 0.28 0.31 0.33 0.36 0.37 0.38 0.37
0.66 0.61 0.62 0.61 0.54 0.44 0.40 0.35 0.36 0.35 0.31 0.37 0.37 0.37 0.38 0.37 0.36 0.24 0.23 0.18 0.19 0.12 0.24 0.18 0.16 0.19 0.24 0.27 0.26 0.23 0.24 0.26 0.29 0.30 0.29 0.30 0.31 0.33 0.33 0.34 0.35 0.36 0.38 0.37
0.66 0.56 0.48 0.46 0.44 0.35 0.31 0.26 0.28 0.29 0.35 0.38 0.38 0.36 0.39 0.41 0.40 0.30 0.23 0.17 0.16 0.24 0.18 0.14 0.16 0.18 0.21 0.25 0.28 0.29 0.29 0.30 0.30 0.31 0.32 0.33 0.33 0.35 0.35 0.34 0.37 0.38 0.37 0.37
0.53 0.46 0.35 0.34 0.30 0.32 0.31 0.31 0.30 0.35 0.36 0.35 0.37 0.35 0.34 0.38 0.34 0.33 0.24 0.24 0.23 0.16 0.15 0.14 0.17 0.22 0.25 0.29 0.32 0.31 0.31 0.33 0.33 0.32 0.33 0.33 0.33 0.34 0.36 0.37 0.38 0.37 0.35 0.37
0.50 0.44 0.32 0.29 0.32 0.35 0.38 0.38 0.37 0.38 0.38 0.35 0.34 0.35 0.34 0.32 0.30 0.33 0.29 0.25 0.21 0.19 0.15 0.17 0.21 0.27 0.28 0.29 0.31 0.32 0.33 0.35 0.36 0.37 0.36 0.35 0.35 0.35 0.36 0.39 0.39 0.38 0.38 0.37
0.51 0.46 0.36 0.38 0.36 0.33 0.37 0.37 0.36 0.40 0.38 0.38 0.35 0.31 0.28 0.26 0.26 0.25 0.25 0.26 0.23 0.23 0.26 0.28 0.29 0.26 0.29 0.31 0.31 0.33 0.38 0.41 0.42 0.41 0.40 0.39 0.38 0.37 0.37 0.40 0.40 0.40 0.38 0.38
0.45 0.39 0.43 0.39 0.37 0.37 0.39 0.40 0.39 0.44 0.37 0.30 0.29 0.22 0.23 0.28 0.23 0.20 0.24 0.25 0.29 0.33 0.34 0.36 0.36 0.33 0.31 0.34 0.37 0.38 0.38 0.41 0.45 0.46 0.45 0.44 0.44 0.44 0.42 0.39 0.40 0.41 0.40 0.39
Wind_Speed
30 30 29 29 28 26 22 18 17 16 14 13 12 11 10 10 10 10 11 11 11 10 9 8 6 6 6 6 7 6 8 8 7 8 8 8 8 10 9 8 9 6 5 9
31 30 30 29 27 23 21 18 17 15 15 14 13 13 13 12 11 10 10 10 10 9 8 8 7 6 6 6 7 8 7 8 8 7 8 11 11 11 9 9 9 14 8 10
31 31 30 27 24 22 19 17 16 16 17 16 15 15 14 13 12 10 10 10 11 9 9 8 8 8 8 8 8 9 10 11 10 10 10 8 11 15 14 10 11 10 13 12
30 29 27 25 23 21 18 17 15 15 16 16 16 16 16 16 14 12 9 9 9 8 9 9 9 9 9 8 8 10 10 10 10 10 11 12 12 12 14 15 13 14 14 16
26 25 23 22 20 20 19 17 16 17 16 16 17 16 16 16 16 14 12 11 9 10 10 9 10 10 10 9 7 9 8 8 8 7 8 12 10 11 12 12 13 14 13 16
22 22 21 21 19 18 19 19 18 17 15 16 16 15 16 16 16 17 16 13 12 11 10 8 9 10 10 9 8 7 8 6 5 3 3 4 6 8 10 10 12 11 13 14
19 19 19 18 18 19 18 17 16 16 15 16 15 16 17 17 16 17 17 16 15 13 9 9 9 9 8 8 8 7 7 5 4 2 4 4 2 4 5 8 10 11 11 11
15 16 15 15 17 18 17 16 15 14 15 14 16 16 17 17 18 18 18 18 17 15 14 13 10 8 8 7 7 7 7 5 3 4 3 1 1 2 3 5 6 8 9 10
13 13 13 13 12 13 14 16 14 13 14 12 13 14 14 15 15 16 17 17 16 17 16 15 13 10 8 6 6 7 6 6 5 4 4 3 2 3 4 3 4 7 9 10
10 10 9 8 8 9 11 12 13 12 12 11 11 12 12 13 13 14 14 14 16 17 17 17 16 14 13 11 8 7 7 7 7 7 7 5 6 7 7 9 6 8 10 11
7 6 6 6 6 7 8 9 11 10 10 9 9 9 10 11 12 12 11 13 13 14 15 15 14 14 13 13 11 11 10 10 8 9 8 6 11 12 12 11 13 13 13 14
8 7 6 6 5 4 6 7 8 9 7 7 7 8 8 8 9 10 10 10 10 11 12 11 12 11 12 12 11 11 9 10 9 10 8 8 9 9 9 11 12 12 12 13
12 10 9 8 6 4 3 4 5 6 6 5 5 4 5 5 6 6 7 7 8 8 9 9 9 8 10 9 7 8 7 8 8 8 7 8 9 9 10 11 11 11 12 12
16 16 13 11 9 6 1 2 2 3 2 2 1 2 2 2 3 3 3 4 5 6 5 5 5 5 5 5 5 5 5 8 7 5 6 7 6 8 9 10 10 10 10 9
19 19 18 15 12 8 5 3 2 2 1 2 2 2 3 1 0 1 1 1 1 2 2 2 1 1 2 1 1 1 5 6 6 4 7 7 6 8 8 8 7 7 7 7
17 18 18 17 15 11 7 6 5 4 3 3 3 4 5 5 4 3 2 2 2 2 2 3 3 2 1 1 2 3 5 7 6 3 5 6 3 9 7 7 6 5 4 4
15 16 16 17 16 14 11 9 9 8 7 6 6 6 6 7 7 6 6 6 6 6 6 5 5 6 5 5 6 5 7 8 8 6 5 5 5 7 8 6 5 4 2 1
14 15 16 15 16 15 14 12 11 10 10 9 8 9 8 8 9 9 9 9 8 8 8 8 8 7 7 8 9 8 8 9 9 10 8 7 7 8 8 7 6 4 3 2
15 14 15 16 17 17 17 16 15 14 13 12 11 10 11 9 10 10 10 10 10 10 10 11 9 10 10 10 9 10 11 11 10 11 10 9 10 11 11 10 9 7 7 6
17 16 15 16 17 18 18 17 17 16 17 17 17 15 14 12 12 12 11 12 12 11 11 10 11 13 18 17 12 10 11 11 10 10 11 12 12 13 14 14 12 11 10 8
18 17 17 16 16 16 16 16 15 15 16 16 16 17 16 17 15 15 14 13 13 12 12 11 10 10 10 11 16 15 13 14 14 11 12 13 13 14 14 14 14 13 12 11
19 17 17 17 17 16 15 15 14 14 14 13 13 15 16 16 17 16 16 16 15 16 13 12 12 11 11 11 12 16 17 16 16 15 14 14 14 15 15 15 15 14 14 13
19 16 16 15 16 16 16 17 16 14 14 14 14 14 14 15 16 16 16 17 19 17 16 17 15 16 17 16 15 15 18 18 18 17 17 16 16 16 16 16 15 15 15 15
19 18 18 16 15 16 17 17 17 18 17 16 16 16 16 15 15 17 17 19 18 19 19 19 16 18 19 17 17 16 18 20 19 19 19 19 19 19 18 18 18 17 17 17
22 19 18 18 17 16 14 16 15 15 15 15 15 17 18 19 18 18 17 18 20 20 19 17 17 17 16 17 18 19 20 21 21 21 21 21 21 21 20 20 20 19 19 19
24 24 19 15 16 18 17 15 16 16 14 14 15 15 14 17 18 19 22 19 22 20 21 21 21 20 20 21 21 21 21 22 23 24 24 23 23 23 22 22 21 21 21 21
27 26 24 20 17 16 17 18 18 17 16 16 16 16 19 15 16 18 20 24 25 25 27 27 27 26 25 24 24 24 25 25 25 26 26 26 25 24 24 24 24 23 23 23
Wind_Direction
93 98 101 104 105 109 104 101 94 89 81 87 82 74 69 86 102 104 104 107 116 126 126 105 108 113 111 111 111 108 107 97 98 95 83 71 77 56 56 64 44 45 30 23
94 96 101 103 101 101 98 93 90 79 75 81 74 70 72 82 97 101 102 103 101 109 110 97 104 111 110 113 114 103 99 94 94 80 82 69 63 58 65 58 60 41 50 22
94 97 99 100 96 93 90 88 84 76 77 77 73 72 72 83 86 98 102 106 105 102 89 90 105 103 110 109 111 108 108 91 91 95 90 83 75 59 55 65 60 52 46 25
94 96 96 95 92 82 82 80 81 81 79 70 67 72 76 80 78 82 93 101 103 109 98 97 98 105 108 106 107 114 109 105 94 98 96 84 80 65 56 60 58 63 45 42
94 95 94 92 88 73 77 80 82 77 80 70 68 67 71 76 74 72 76 99 93 100 105 104 109 112 111 112 113 113 109 113 108 121 104 86 73 52 55 53 51 60 48 53
94 93 92 92 81 73 77 78 78 76 71 70 71 72 73 74 76 71 75 83 90 97 106 107 106 111 112 114 120 129 126 122 101 115 103 89 69 45 54 62 52 52 53 55
97 93 95 89 77 77 76 73 74 73 71 71 73 76 76 72 72 79 73 73 80 87 96 110 113 117 113 115 116 131 147 139 124 129 86 89 114 77 71 66 54 49 54 58
101 99 99 93 85 74 69 66 69 71 74 75 74 76 78 75 72 75 74 74 81 79 83 94 104 109 110 124 126 125 134 141 130 116 94 83 56 82 69 68 52 51 50 53
107 107 104 100 86 72 66 61 65 71 78 72 78 78 79 77 75 70 73 76 75 75 80 82 88 98 120 129 123 139 130 116 115 101 85 70 101 125 104 81 67 68 67 64
125 116 116 106 89 75 65 59 56 67 76 79 82 82 81 78 76 77 73 73 71 73 76 80 83 86 92 100 119 127 121 112 108 99 92 71 95 102 96 92 106 88 82 78
155 145 137 125 100 83 65 56 50 63 75 83 82 80 79 78 79 80 79 73 71 74 76 81 84 86 86 90 98 104 112 108 111 102 94 82 111 100 104 98 96 96 92 89
193 186 175 159 134 99 59 52 46 57 75 91 91 89 86 83 77 83 74 77 78 81 79 80 82 84 84 91 92 98 100 114 107 116 106 97 114 107 104 101 101 99 95 91
217 210 202 196 183 163 62 41 41 50 69 78 91 100 97 86 79 81 77 73 76 76 79 82 81 80 89 93 95 97 101 112 105 96 112 114 117 110 108 107 105 102 98 94
223 218 213 209 207 204 221 2 4 32 52 80 114 127 137 105 77 80 79 70 72 73 73 74 78 82 99 86 87 109 117 115 121 110 106 105 125 128 122 117 111 106 102 98
221 217 214 215 214 217 248 276 277 311 322 281 276 240 208 217 243 35 51 35 46 43 42 58 54 72 83 66 50 203 170 149 136 133 148 131 137 145 135 128 124 118 109 98
211 211 212 214 216 228 247 262 267 283 280 280 270 259 253 247 257 273 289 291 292 299 294 284 283 267 265 252 251 242 194 193 181 167 157 155 129 159 154 147 143 130 115 95
206 209 212 214 218 229 241 250 266 271 273 275 276 272 265 251 253 264 271 277 279 279 284 276 270 267 253 261 255 254 218 208 207 200 171 192 184 181 180 174 171 169 164 135
210 211 214 221 226 232 244 254 262 267 270 270 266 268 275 262 258 260 269 274 278 274 273 276 271 273 264 265 250 245 231 216 218 214 220 217 206 196 197 197 197 202 217 242
213 218 224 234 241 242 246 254 261 263 262 263 261 263 271 268 268 266 269 270 276 275 272 270 267 263 255 252 244 234 227 222 223 219 220 215 213 211 212 213 218 225 237 250
224 231 240 246 245 247 254 259 262 263 262 259 260 263 263 265 269 272 272 270 270 274 273 274 267 268 263 253 247 245 230 225 212 216 223 225 225 220 220 223 227 234 242 255
230 236 241 246 250 249 255 257 257 262 266 262 264 256 259 260 263 264 266 268 270 272 270 267 273 277 273 259 241 237 235 229 227 237 232 230 227 223 224 229 232 237 245 253
228 237 242 247 253 254 254 255 260 258 263 265 263 262 258 258 257 260 265 265 268 263 265 266 265 276 278 274 259 242 236 234 235 236 234 232 230 230 230 232 235 241 248 255
225 241 245 248 250 251 246 250 257 260 259 261 266 270 266 264 259 260 262 263 260 267 265 261 261 274 281 274 267 260 241 240 238 238 240 237 236 235 235 236 241 245 250 258
230 234 244 240 249 248 245 248 253 257 262 262 265 267 267 266 263 259 261 261 265 268 266 266 275 277 278 270 267 262 251 244 241 241 241 241 239 240 241 243 245 248 254 260
231 235 243 245 245 245 250 250 256 261 260 264 271 272 265 265 264 261 263 266 261 259 264 269 277 281 279 274 270 265 256 249 246 246 245 244 243 242 245 246 248 253 258 263
236 238 241 244 246 248 249 251 253 254 255 266 273 273 276 268 264 263 257 257 260 265 267 276 280 280 278 275 271 264 259 254 250 249 248 246 245 245 247 249 251 254 259 265
237 241 239 240 246 247 248 248 251 252 256 263 267 268 262 274 277 276 264 259 263 267 272 274 274 277 278 275 271 266 261 257 254 251 249 248 248 247 248 251 253 256 261 266